Simultaneous Nadir Overpasses (SNOs) Predictions

Prediction of SNOs over PacNW region [( 10.00, 139.50) to ( 22.70, 165.60)] between AQUA and NPP Satellites:

Table of predicted SNOs over PacNW region for the next 30.0 days since TLE Epoch: 11/11/2017
Index Date (AQUA) Time (AQUA) AQUA Lat,Lon Date (NPP) Time (NPP) NPP Lat,Lon Distance(km) Time Diff (sec)
1 11/16/2017 15:09:47 22.60, 159.84 11/16/2017 15:11:35 23.19, 157.14 283.82 108
2 11/19/2017 03:31:37 22.65, 147.51 11/19/2017 03:28:08 23.78, 145.40 249.63 209
3 11/24/2017 15:59:15 22.63, 147.48 11/24/2017 16:02:16 23.28, 144.47 316.58 181
4 12/02/2017 15:09:49 22.59, 159.84 12/02/2017 15:11:30 23.17, 157.13 285.09 101
5 12/05/2017 03:31:38 22.66, 147.52 12/05/2017 03:28:09 24.13, 145.31 279.65 209




NCC Satellite Simultaneous Nadir Overpasses (SNOs) Prediction Service
